SCP
0 0 0 0 0 0 -0 0 -0 0 0 0 0 0 0 0 0 0 0 0 0 0 0 0 0 0 0 0 0 0 0 0 0 0 0 0 0 0 0 0 0 0 0 0
0 0 0 0 0 -0 -0 0 0 0 -0 0 0 0 0 0 0 0 0 0 0 0 0 0 0 0 0 0 0 0 0 0 0 0 0 0 0 0 0 0 0 0 0 0
0 0 0 0 -0 0 0 0 0 0 0 0 0 0 0 0 0 0 0 0 0 0 0 0 0 0 0 0 0 0 0 0 0 0 0 0 0 0 0 0 0 0 0 0
0 0 0 0 0 0 0 0 0 0 0 0 0 0 0 0 0 0 0 0 0 0 0 0 0 0 0 0 0 0 0 0 0 0 0 0 0 0 0 0 0 0 0 0
0 0 0 0 0 0 0 0 0 0 0 0 0 0 0 0 0 0 0 0 0 0 0 0 0 0 0 0 0 0 0 0 0 0 0 0 0 0 0 0 0 0 0 0
0 0 0 0 0 0 0 0 0 0 0 0 0 0 0 0 0 0 0 0 0 0 0 0 0 0 0 0 0 0 0 0 0 0 0 0 0 0 0 0 0 0 0 0
0 0 0 0 0 0 0 0 0 0 0 0 0 0 0 0 0 0 0 0 0 0 0 0 0 0 0 0 0 0 0 0 0 0 0 0 0 0 0 0 0 0 0 0
0 0 0 0 0 0 0 0 0 0 0 0 0 0 0 0 0 0 0 0 0 0 0 0 0 0 0 0 0 0 0 0 0 0 0 0 0 0 0 0 0 0 0 0
0 0 0 0 0 0 0 0 0 0 0 0 0 0 0 0 0 0 0 0 0 0 0 0 0 0 0 0 0 0 0 0 0 0 0 0 0 0 0 0 0 0 0 0
0 0 0 0 0 0 0 0 0 0 0 0 0 0 0 0 0 0 0 0 0 0 0 0 0 0 0 0 0 0 0 0 0 0 0 0 0 0 0 0 0 0 0 0
0 0 0 0 0 0 0 0 0 0 0 0 0 0 0 0 0 0 0 0 0 0 0 0 0 0 0 0 0 0 0 0 0 0 0 0 0 0 0 0 0 0 0 0
0 0 0 0 0 0 0 0 0 0 0 0 0 0 0 0 0 0 0 0 0 0 0 0 0 0 0 0 0 0 0 0 0 0 0 0 0 0 0 0 0 0 0 0
0 0 0 0 0 0 0 0 0 0 0 0 0 0 0 0 0 0 0 0 0 0 0 0 -0 -0 -0 0 0 0 0 0 0 0 0 0 0 0 0 0 0 0 0 0
0 0 0 0 0 0 0 0 0 0 0 0 0 0 0 0 0 0 0 0 0 -0 -0 -0 -0 0 0 0 0 0 0 0 0 0 0 0 0 0 0 0 0 0 0 0
0 0 0 0 0 0 0 0 0 0 0 0 0 0 0 0 0 0 0 0 0 0 0 0 0 0 0 0 0 0 0 0 0 0 0 0 0 0 0 0 0 0 0 0
0 0 0 0 0 0 0 0 0 0 0 0 0 0 0 0 0 0 0 0 0 0 0 0 0 0 0 0 0 0 0 0 0 0 0 0 0 0 0 0 0 0 0 0
0 0 0 0 0 0 0 0 0 0 0 0 0 0 0 0 0 0 0 0 0 0 0 0 0 0 0 0 0 0 0 0 0 0 0 0 0 0 0 0 0 0 0 0
0 0 0 0 0 0 0 0 0 0 0 0 0 0 0 0 0 0 0 0 0 0 0 0 0 0 0 0 0 0 0 0 0 0 0 0 0 0 0 0 0 0 0 0
0 0 0 0 0 0 0 0 0 0 0 0 0 0 0 0 0 0 0 0 0 0 0 0 0 0 0 0 0 0 0 0 0 0 0 0 0 0 0 0 0 0 0 0
0 0 0 0 0 0 0 0 0 0 0 0 0 0 0 0 0 0 0 0 0 0 0 0 0 0 0 0 0 0 0 0 0 0 0 0 0 0 0 0 0 0 0 0
0 0 0 0 0 0 0 0 0 0 0 0 0 0 0 0 0 0 0 0 0 0 0 0 0 0 0 0 0 0 0 0 0 0 0 0 0 0 0 0 0 0 0 0
0 0 0 0 0 0 0 0 0 0 0 0 0 0 0 0 0 0 0 0 0 0 0 0 0 0 0 0 0 0 0 0 0 0 0 0 0 0 0 0 0 0 0 0
0 0 0 0 0 0 0 0 0 0 0 0 0 0 0 0 0 0 0 0 0 0 0 0 0 0 0 0 0 0 0 0 0 0 0 0 0 0 0 0 0 0 0 0
0 0 0 0 0 0 0 0 0 0 0 0 0 0 0 0 0 0 0 0 0 0 0 0 0 0 0 0 0 0 0 0 0 0 0 0 0 0 0 0 0 0 0 0
0 0 0 0 0 0 0 0 0 0 0 0 0 0 0 0 0 0 0 0 0 0 0 0 0 0 0 0 0 0 0 0 0 0 0 0 0 0 0 0 0 0 0 0
0 0 0 0 0 0 0 0 0 0 0 0 0 0 0 0 0 0 0 0 0 0 0 0 0 0 0 0 0 0 0 0 0 0 0 0 0 0 0 0 0 0 0 0
0 0 0 0 0 0 0 0 0 0 0 0 0 0 0 0 0 0 0 0 0 0 0 0 0 0 0 0 0 0 0 0 0 0 0 0 0 0 0 0 0 0 0 0
Wind_Speed_500mb
28 11 13 18 18 24 32 32 27 25 27 17 16 12 18 18 23 34 40 46 52 53 53 52 52 51 48 38 20 23 28 28 27 27 28 29 31 31 32 33 32 34 35 35
10 16 15 21 24 28 28 32 33 36 33 31 24 20 16 21 22 29 36 43 48 52 53 53 54 52 48 32 28 30 30 28 27 28 28 30 32 33 33 32 34 34 33 31
7 7 9 13 30 33 33 31 26 30 32 26 13 12 20 19 20 27 32 38 45 51 53 52 51 48 49 29 29 30 26 26 27 28 29 31 33 33 34 34 35 34 30 26
1 3 1 4 2 9 15 27 30 27 29 27 13 17 17 18 22 24 28 35 41 45 46 47 45 46 35 30 28 26 22 25 26 27 31 31 31 33 34 35 34 31 29 26
5 12 17 22 13 3 5 13 17 15 19 21 11 13 33 26 17 17 24 30 33 36 39 41 41 39 37 32 28 23 19 23 23 26 28 31 32 32 33 33 31 30 28 24
6 5 7 8 7 2 3 11 16 17 17 17 5 10 13 2 9 14 21 27 31 32 34 36 35 33 30 24 15 16 18 18 27 26 26 31 32 32 31 29 26 29 27 23
11 7 11 5 4 5 10 6 16 19 21 15 13 12 14 18 21 22 23 24 26 28 30 29 30 28 18 15 8 16 23 29 27 25 27 30 30 29 28 26 27 27 29 23
5 5 11 12 12 3 10 16 18 21 21 18 22 26 28 24 22 21 20 16 15 18 20 21 17 13 3 3 10 23 31 30 26 27 28 26 30 30 28 30 28 26 29 30
11 2 8 9 9 12 15 19 21 22 26 26 30 33 34 26 22 16 11 12 15 25 28 26 18 6 7 10 24 28 33 29 27 25 26 28 32 31 33 31 29 26 25 24
3 4 7 12 16 10 11 16 21 24 28 28 29 28 28 21 9 6 13 17 24 22 18 12 15 6 7 20 29 28 27 24 25 28 31 34 28 31 29 29 28 27 25 24
11 22 14 11 7 9 19 22 23 22 22 17 20 23 19 3 5 13 22 22 20 18 17 9 5 10 18 27 27 27 29 31 31 31 28 35 31 32 30 28 29 27 28 29
7 13 12 17 21 16 16 14 14 15 12 14 15 8 13 23 23 22 25 20 18 21 14 3 8 19 28 28 29 29 30 31 28 28 31 32 33 36 34 36 33 40 45 48
9 19 16 12 12 16 16 18 19 20 20 20 26 25 29 31 31 29 23 19 12 4 4 12 22 29 29 29 27 29 31 30 30 32 32 34 37 41 41 36 39 39 43 43
10 16 12 19 12 15 19 24 28 29 26 24 22 24 27 25 18 12 8 8 4 12 22 26 32 33 31 31 29 30 31 33 34 33 42 43 39 44 43 44 46 47 43 42
10 9 11 14 17 19 19 20 30 33 33 35 32 28 19 14 11 5 2 13 19 25 28 32 33 31 22 26 34 36 33 32 43 41 39 44 50 49 45 46 47 50 48 45
11 16 19 22 25 25 26 28 34 29 23 18 14 10 7 8 10 13 16 21 27 29 29 34 42 42 41 41 34 34 37 42 46 50 53 55 55 48 49 47 49 51 51 46
17 19 23 27 26 25 25 22 19 16 14 12 12 15 16 19 20 21 22 27 35 40 43 47 47 42 46 47 41 41 46 51 54 58 61 58 56 57 48 52 54 53 50 50
26 30 26 27 25 22 17 13 10 11 14 16 16 16 16 19 22 25 28 32 36 40 42 45 45 45 47 50 49 49 54 56 55 55 55 56 57 55 55 48 49 50 50 48
33 33 25 20 17 13 11 11 12 13 14 15 15 18 22 24 28 33 39 42 47 50 40 49 54 56 56 56 57 56 57 52 52 53 53 57 57 55 52 49 49 49 49 46
26 22 19 15 13 13 14 15 14 13 14 18 21 25 30 36 42 46 49 51 47 43 50 53 56 58 59 57 54 54 46 48 49 48 49 51 51 52 49 47 47 45 42 41
20 16 14 13 13 13 12 11 11 13 19 26 33 37 39 41 43 45 47 50 44 41 45 47 51 55 58 57 60 61 53 55 59 49 43 46 50 45 47 47 41 38 39 39
13 13 13 12 9 8 7 8 12 18 25 29 31 35 40 39 44 42 42 44 45 57 63 57 56 58 61 62 65 69 70 63 58 44 42 42 44 47 51 44 42 43 46 46
13 12 11 10 5 1 5 11 18 24 28 31 33 37 39 36 35 43 49 45 53 55 63 62 64 66 63 60 62 61 58 55 51 43 41 40 39 37 37 40 39 39 36 36
14 12 10 7 4 7 9 18 23 27 30 28 29 36 39 39 37 34 41 49 50 52 48 56 64 62 56 47 34 39 37 36 36 39 34 32 30 31 33 37 39 39 40 42
11 9 7 3 2 7 13 20 20 20 26 26 27 28 33 31 34 40 40 42 44 46 45 47 52 49 45 44 42 40 35 32 35 31 28 28 29 30 33 35 39 41 43 44
11 8 5 7 6 9 16 20 22 21 26 26 27 28 29 30 31 34 36 38 39 42 42 45 47 47 43 41 39 37 33 31 34 32 32 30 32 32 34 36 38 41 43 44
10 7 3 1 11 17 23 25 24 24 24 25 26 27 29 32 33 33 35 37 39 41 42 41 41 44 44 41 38 38 36 35 36 37 35 35 35 35 37 39 40 42 42 41
Wind_Direction_500mb
261 294 294 287 266 229 235 240 252 266 266 285 311 285 261 242 230 234 222 221 220 217 216 214 211 209 207 206 237 205 214 228 241 252 264 273 281 287 291 291 302 305 305 301
253 244 269 271 262 257 251 251 257 262 272 293 331 291 264 264 245 236 229 222 221 220 220 218 215 213 211 221 217 221 220 233 245 258 267 276 283 287 291 292 298 302 301 300
254 337 307 288 242 246 251 251 256 266 276 298 328 271 281 269 243 244 238 229 225 223 223 221 219 216 214 226 223 216 227 242 255 268 276 283 287 290 289 289 297 300 299 302
268 234 287 283 49 304 277 273 264 264 273 284 280 314 293 273 271 244 243 236 231 227 225 223 223 213 219 220 217 220 230 256 261 276 285 287 289 289 289 290 292 293 290 289
183 224 294 285 181 265 242 294 16 338 334 324 28 303 270 235 235 250 254 246 237 230 226 222 218 217 215 214 216 218 252 254 275 285 292 293 292 290 289 289 288 290 287 283
166 224 238 74 79 112 227 250 41 7 348 336 249 276 335 118 242 265 257 242 232 225 222 220 209 211 198 189 250 245 251 272 282 288 291 289 289 291 292 286 287 288 281 275
204 251 283 39 162 211 241 40 2 348 329 298 255 317 343 330 300 276 264 242 222 213 210 206 201 189 178 168 209 260 281 294 295 294 293 290 294 295 288 283 281 276 274 277
181 208 264 136 142 274 17 320 327 323 324 296 278 294 300 305 304 287 258 230 199 185 179 168 162 158 169 79 253 280 294 295 298 293 291 292 294 289 280 281 277 269 269 268
211 227 109 189 328 309 303 304 311 309 306 297 290 290 298 294 298 291 230 198 172 168 158 160 185 206 77 272 285 301 297 303 297 296 295 300 295 293 281 277 273 267 266 263
302 162 271 285 289 289 304 298 303 305 306 304 299 300 299 291 264 199 164 149 140 138 153 169 84 58 309 300 298 296 303 299 292 301 299 295 299 295 281 272 272 266 259 255
244 280 286 265 342 358 319 313 310 310 313 313 310 302 303 262 163 150 142 124 147 152 108 91 337 326 310 296 302 306 303 303 301 303 302 298 295 288 285 279 260 264 255 258
249 29 343 314 344 339 335 352 350 345 349 10 0 17 108 111 113 120 135 133 124 101 87 56 318 305 291 295 299 304 308 304 301 289 293 292 293 292 295 293 276 265 261 263
303 318 308 323 60 39 53 47 50 59 65 66 68 91 105 117 131 131 122 105 85 59 339 289 278 282 288 295 302 301 302 309 305 300 294 289 290 294 294 295 289 281 265 267
343 331 162 41 54 59 74 77 78 74 76 81 85 99 113 123 135 142 128 91 99 244 255 279 296 294 292 290 295 303 302 304 308 299 295 292 289 281 283 287 287 286 284 279
32 50 88 99 91 86 94 93 84 85 88 89 85 84 86 95 93 108 248 266 271 294 297 298 294 289 284 275 288 293 296 292 296 302 299 297 303 307 286 284 286 286 283 278
92 95 100 105 99 95 96 95 96 94 84 80 73 55 15 343 329 318 311 304 306 303 299 295 295 293 285 284 283 283 285 286 290 296 300 303 304 299 293 287 282 288 282 269
117 114 113 109 108 107 101 93 84 75 59 41 14 353 341 335 335 330 320 307 309 307 307 305 305 296 285 283 282 286 285 283 283 288 295 298 295 295 295 289 285 286 284 275
116 122 116 116 117 113 95 73 53 38 24 18 13 8 0 350 343 334 327 321 317 315 316 314 312 309 298 290 282 279 277 280 289 295 296 294 292 290 289 293 286 289 288 284
113 114 110 100 95 107 86 64 55 51 40 27 15 6 356 345 334 327 322 319 318 319 318 307 305 302 300 297 290 285 285 287 294 297 293 292 291 287 287 290 293 291 291 286
114 112 107 102 100 94 84 73 62 44 23 7 354 343 334 328 323 319 318 317 321 320 314 313 310 309 307 304 295 283 277 281 287 290 302 305 297 290 288 292 294 293 294 287
121 116 113 112 105 98 88 69 44 21 360 342 334 330 328 326 324 324 326 325 329 318 310 306 304 302 305 304 296 280 273 277 284 289 291 300 303 301 291 289 288 293 295 295
126 127 126 123 116 102 69 27 359 345 337 337 336 333 333 335 331 332 331 327 315 314 318 317 315 312 307 300 296 294 293 292 277 279 282 293 297 295 289 286 290 288 290 287
138 146 151 158 164 354 330 323 328 333 338 340 336 334 334 330 330 325 325 320 315 315 313 315 310 305 304 304 306 305 299 295 269 268 279 290 294 299 297 297 294 294 296 294
154 174 190 193 242 286 306 320 334 332 334 341 332 327 329 333 328 329 316 320 322 324 322 313 313 317 318 312 304 295 288 281 283 280 285 292 297 298 300 300 299 297 298 299
190 186 198 217 327 333 326 327 342 335 332 334 333 334 333 335 330 326 329 331 335 337 338 335 336 336 330 326 323 318 313 304 297 297 293 299 301 301 304 303 301 301 303 304
149 148 195 240 281 318 323 332 332 331 331 333 333 337 337 333 329 334 332 335 337 340 342 341 341 342 342 339 334 328 324 316 311 311 310 309 307 310 309 307 307 306 306 307
180 163 127 358 322 323 322 327 330 331 333 326 334 333 332 331 331 332 332 334 335 335 335 336 337 335 335 337 335 332 329 325 321 320 320 316 317 317 314 313 313 313 312 312
Wind_Speed_850mb
28 11 13 18 18 24 32 32 27 25 27 17 16 12 18 18 23 34 40 46 52 53 53 52 52 51 48 38 20 23 28 28 27 27 28 29 31 31 32 33 32 34 35 35
10 16 15 21 24 28 28 32 33 36 33 31 24 20 16 21 22 29 36 43 48 52 53 53 54 52 48 32 28 30 30 28 27 28 28 30 32 33 33 32 34 34 33 31
7 7 9 13 30 33 33 31 26 30 32 26 13 12 20 19 20 27 32 38 45 51 53 52 51 48 49 29 29 30 26 26 27 28 29 31 33 33 34 34 35 34 30 26
1 3 1 4 2 9 15 27 30 27 29 27 13 17 17 18 22 24 28 35 41 45 46 47 45 46 35 30 28 26 22 25 26 27 31 31 31 33 34 35 34 31 29 26
5 12 17 22 13 3 5 13 17 15 19 21 11 13 33 26 17 17 24 30 33 36 39 41 41 39 37 32 28 23 19 23 23 26 28 31 32 32 33 33 31 30 28 24
6 5 7 8 7 2 3 11 16 17 17 17 5 10 13 2 9 14 21 27 31 32 34 36 35 33 30 24 15 16 18 18 27 26 26 31 32 32 31 29 26 29 27 23
11 7 11 5 4 5 10 6 16 19 21 15 13 12 14 18 21 22 23 24 26 28 30 29 30 28 18 15 8 16 23 29 27 25 27 30 30 29 28 26 27 27 29 23
5 5 11 12 12 3 10 16 18 21 21 18 22 26 28 24 22 21 20 16 15 18 20 21 17 13 3 3 10 23 31 30 26 27 28 26 30 30 28 30 28 26 29 30
11 2 8 9 9 12 15 19 21 22 26 26 30 33 34 26 22 16 11 12 15 25 28 26 18 6 7 10 24 28 33 29 27 25 26 28 32 31 33 31 29 26 25 24
3 4 7 12 16 10 11 16 21 24 28 28 29 28 28 21 9 6 13 17 24 22 18 12 15 6 7 20 29 28 27 24 25 28 31 34 28 31 29 29 28 27 25 24
11 22 14 11 7 9 19 22 23 22 22 17 20 23 19 3 5 13 22 22 20 18 17 9 5 10 18 27 27 27 29 31 31 31 28 35 31 32 30 28 29 27 28 29
7 13 12 17 21 16 16 14 14 15 12 14 15 8 13 23 23 22 25 20 18 21 14 3 8 19 28 28 29 29 30 31 28 28 31 32 33 36 34 36 33 40 45 48
9 19 16 12 12 16 16 18 19 20 20 20 26 25 29 31 31 29 23 19 12 4 4 12 22 29 29 29 27 29 31 30 30 32 32 34 37 41 41 36 39 39 43 43
10 16 12 19 12 15 19 24 28 29 26 24 22 24 27 25 18 12 8 8 4 12 22 26 32 33 31 31 29 30 31 33 34 33 42 43 39 44 43 44 46 47 43 42
10 9 11 14 17 19 19 20 30 33 33 35 32 28 19 14 11 5 2 13 19 25 28 32 33 31 22 26 34 36 33 32 43 41 39 44 50 49 45 46 47 50 48 45
11 16 19 22 25 25 26 28 34 29 23 18 14 10 7 8 10 13 16 21 27 29 29 34 42 42 41 41 34 34 37 42 46 50 53 55 55 48 49 47 49 51 51 46
17 19 23 27 26 25 25 22 19 16 14 12 12 15 16 19 20 21 22 27 35 40 43 47 47 42 46 47 41 41 46 51 54 58 61 58 56 57 48 52 54 53 50 50
26 30 26 27 25 22 17 13 10 11 14 16 16 16 16 19 22 25 28 32 36 40 42 45 45 45 47 50 49 49 54 56 55 55 55 56 57 55 55 48 49 50 50 48
33 33 25 20 17 13 11 11 12 13 14 15 15 18 22 24 28 33 39 42 47 50 40 49 54 56 56 56 57 56 57 52 52 53 53 57 57 55 52 49 49 49 49 46
26 22 19 15 13 13 14 15 14 13 14 18 21 25 30 36 42 46 49 51 47 43 50 53 56 58 59 57 54 54 46 48 49 48 49 51 51 52 49 47 47 45 42 41
20 16 14 13 13 13 12 11 11 13 19 26 33 37 39 41 43 45 47 50 44 41 45 47 51 55 58 57 60 61 53 55 59 49 43 46 50 45 47 47 41 38 39 39
13 13 13 12 9 8 7 8 12 18 25 29 31 35 40 39 44 42 42 44 45 57 63 57 56 58 61 62 65 69 70 63 58 44 42 42 44 47 51 44 42 43 46 46
13 12 11 10 5 1 5 11 18 24 28 31 33 37 39 36 35 43 49 45 53 55 63 62 64 66 63 60 62 61 58 55 51 43 41 40 39 37 37 40 39 39 36 36
14 12 10 7 4 7 9 18 23 27 30 28 29 36 39 39 37 34 41 49 50 52 48 56 64 62 56 47 34 39 37 36 36 39 34 32 30 31 33 37 39 39 40 42
11 9 7 3 2 7 13 20 20 20 26 26 27 28 33 31 34 40 40 42 44 46 45 47 52 49 45 44 42 40 35 32 35 31 28 28 29 30 33 35 39 41 43 44
11 8 5 7 6 9 16 20 22 21 26 26 27 28 29 30 31 34 36 38 39 42 42 45 47 47 43 41 39 37 33 31 34 32 32 30 32 32 34 36 38 41 43 44
10 7 3 1 11 17 23 25 24 24 24 25 26 27 29 32 33 33 35 37 39 41 42 41 41 44 44 41 38 38 36 35 36 37 35 35 35 35 37 39 40 42 42 41
Wind_Direction_850mb
261 294 294 287 266 229 235 240 252 266 266 285 311 285 261 242 230 234 222 221 220 217 216 214 211 209 207 206 237 205 214 228 241 252 264 273 281 287 291 291 302 305 305 301
253 244 269 271 262 257 251 251 257 262 272 293 331 291 264 264 245 236 229 222 221 220 220 218 215 213 211 221 217 221 220 233 245 258 267 276 283 287 291 292 298 302 301 300
254 337 307 288 242 246 251 251 256 266 276 298 328 271 281 269 243 244 238 229 225 223 223 221 219 216 214 226 223 216 227 242 255 268 276 283 287 290 289 289 297 300 299 302
268 234 287 283 49 304 277 273 264 264 273 284 280 314 293 273 271 244 243 236 231 227 225 223 223 213 219 220 217 220 230 256 261 276 285 287 289 289 289 290 292 293 290 289
183 224 294 285 181 265 242 294 16 338 334 324 28 303 270 235 235 250 254 246 237 230 226 222 218 217 215 214 216 218 252 254 275 285 292 293 292 290 289 289 288 290 287 283
166 224 238 74 79 112 227 250 41 7 348 336 249 276 335 118 242 265 257 242 232 225 222 220 209 211 198 189 250 245 251 272 282 288 291 289 289 291 292 286 287 288 281 275
204 251 283 39 162 211 241 40 2 348 329 298 255 317 343 330 300 276 264 242 222 213 210 206 201 189 178 168 209 260 281 294 295 294 293 290 294 295 288 283 281 276 274 277
181 208 264 136 142 274 17 320 327 323 324 296 278 294 300 305 304 287 258 230 199 185 179 168 162 158 169 79 253 280 294 295 298 293 291 292 294 289 280 281 277 269 269 268
211 227 109 189 328 309 303 304 311 309 306 297 290 290 298 294 298 291 230 198 172 168 158 160 185 206 77 272 285 301 297 303 297 296 295 300 295 293 281 277 273 267 266 263
302 162 271 285 289 289 304 298 303 305 306 304 299 300 299 291 264 199 164 149 140 138 153 169 84 58 309 300 298 296 303 299 292 301 299 295 299 295 281 272 272 266 259 255
244 280 286 265 342 358 319 313 310 310 313 313 310 302 303 262 163 150 142 124 147 152 108 91 337 326 310 296 302 306 303 303 301 303 302 298 295 288 285 279 260 264 255 258
249 29 343 314 344 339 335 352 350 345 349 10 0 17 108 111 113 120 135 133 124 101 87 56 318 305 291 295 299 304 308 304 301 289 293 292 293 292 295 293 276 265 261 263
303 318 308 323 60 39 53 47 50 59 65 66 68 91 105 117 131 131 122 105 85 59 339 289 278 282 288 295 302 301 302 309 305 300 294 289 290 294 294 295 289 281 265 267
343 331 162 41 54 59 74 77 78 74 76 81 85 99 113 123 135 142 128 91 99 244 255 279 296 294 292 290 295 303 302 304 308 299 295 292 289 281 283 287 287 286 284 279
32 50 88 99 91 86 94 93 84 85 88 89 85 84 86 95 93 108 248 266 271 294 297 298 294 289 284 275 288 293 296 292 296 302 299 297 303 307 286 284 286 286 283 278
92 95 100 105 99 95 96 95 96 94 84 80 73 55 15 343 329 318 311 304 306 303 299 295 295 293 285 284 283 283 285 286 290 296 300 303 304 299 293 287 282 288 282 269
117 114 113 109 108 107 101 93 84 75 59 41 14 353 341 335 335 330 320 307 309 307 307 305 305 296 285 283 282 286 285 283 283 288 295 298 295 295 295 289 285 286 284 275
116 122 116 116 117 113 95 73 53 38 24 18 13 8 0 350 343 334 327 321 317 315 316 314 312 309 298 290 282 279 277 280 289 295 296 294 292 290 289 293 286 289 288 284
113 114 110 100 95 107 86 64 55 51 40 27 15 6 356 345 334 327 322 319 318 319 318 307 305 302 300 297 290 285 285 287 294 297 293 292 291 287 287 290 293 291 291 286
114 112 107 102 100 94 84 73 62 44 23 7 354 343 334 328 323 319 318 317 321 320 314 313 310 309 307 304 295 283 277 281 287 290 302 305 297 290 288 292 294 293 294 287
121 116 113 112 105 98 88 69 44 21 360 342 334 330 328 326 324 324 326 325 329 318 310 306 304 302 305 304 296 280 273 277 284 289 291 300 303 301 291 289 288 293 295 295
126 127 126 123 116 102 69 27 359 345 337 337 336 333 333 335 331 332 331 327 315 314 318 317 315 312 307 300 296 294 293 292 277 279 282 293 297 295 289 286 290 288 290 287
138 146 151 158 164 354 330 323 328 333 338 340 336 334 334 330 330 325 325 320 315 315 313 315 310 305 304 304 306 305 299 295 269 268 279 290 294 299 297 297 294 294 296 294
154 174 190 193 242 286 306 320 334 332 334 341 332 327 329 333 328 329 316 320 322 324 322 313 313 317 318 312 304 295 288 281 283 280 285 292 297 298 300 300 299 297 298 299
190 186 198 217 327 333 326 327 342 335 332 334 333 334 333 335 330 326 329 331 335 337 338 335 336 336 330 326 323 318 313 304 297 297 293 299 301 301 304 303 301 301 303 304
149 148 195 240 281 318 323 332 332 331 331 333 333 337 337 333 329 334 332 335 337 340 342 341 341 342 342 339 334 328 324 316 311 311 310 309 307 310 309 307 307 306 306 307
180 163 127 358 322 323 322 327 330 331 333 326 334 333 332 331 331 332 332 334 335 335 335 336 337 335 335 337 335 332 329 325 321 320 320 316 317 317 314 313 313 313 312 312